Fort Eustis, VA

11:34 PM EST on February 21, 2018 (GMT -0500)
Felker Army Air Field

Weather History for KFAF - November, 2012

Change the Weather History Date:

Tuesday, November 27, 2012

  Actual Average Record
Temperature  
Mean Temperature 44 °F -  
Max Temperature 50 °F 56 °F 69 °F (2011)
Min Temperature 39 °F 39 °F 27 °F (2008)
Degree Days  
Heating Degree Days 20    
Moisture  
Dew Point 41 °F    
Average Humidity 82    
Maximum Humidity 93    
Minimum Humidity 66    
Precipitation  
Precipitation 0.14 in - - ()
Sea Level Pressure  
Sea Level Pressure 30.17 in    
Wind  
Wind Speed 6 mph (NNW)    
Max Wind Speed 12 mph    
Max Gust Speed 18 mph    
Visibility 9 miles    
Events Rain    
Averages and records for this station are not official NWS values.
T = Trace of Precipitation, MM = Missing Value Source: NWS Daily Summary

Daily Weather History Graph

Daily Weather History Graph

Search for Another Location

Airport or City:

Trip Planner

Search our weather history database for the weather conditions in past years. The results will help you decide how hot, cold, wet, or windy it might be!

Date:

Astronomy

Nov. 27, 2012 Rise Set
Actual Time 6:57 AM EST 4:50 PM EST
Civil Twilight 6:29 AM EST 5:18 PM EST
Nautical Twilight 5:57 AM EST 5:50 PM EST
Astronomical Twilight 5:26 AM EST 6:22 PM EST
Moon 4:19 PM EST (11/27) 6:01 AM EST (11/27)
Length of Visible Light 10h 49m
Length of Day
9h 52m
Waxing Gibbous, 99% of the Moon is Illuminated
Nov 27
Waxing Gibbous
Nov 28
Full
Dec 6
Last Quarter
Dec 13
New
Dec 20
First Quarter

Hourly Weather History & Observations

Time (EST) Temp. Windchill Dew Point Humidity Pressure Visibility Wind Dir Wind Speed Gust Speed Precip Events Conditions
12:55 AM 39.6 °F 36.3 °F 36.9 °F 90% 30.19 in 10.0 mi SSE 4.6 mph - N/A   Clear
1:55 AM 45.1 °F 42.0 °F 40.6 °F 84% 30.19 in 10.0 mi SSE 5.8 mph - N/A   Mostly Cloudy
2:55 AM 46.6 °F - 40.6 °F 80% 30.19 in 10.0 mi SSE 8.1 mph - N/A   Overcast
3:55 AM 47.1 °F - 37.6 °F 69% 30.17 in 10.0 mi South 9.2 mph - N/A   Mostly Cloudy
4:55 AM 47.5 °F - 38.3 °F 70% 30.17 in 10.0 mi South 9.2 mph - N/A   Overcast
5:55 AM 47.3 °F - 39.6 °F 74% 30.16 in 10.0 mi SSE 5.8 mph - N/A   Overcast
6:49 AM 46.4 °F - 41.0 °F 81% 30.17 in 10.0 mi Calm Calm - N/A   Light Drizzle
6:55 AM 47.3 °F - 40.3 °F 77% 30.16 in 10.0 mi Calm Calm - 0.00 in   Light Drizzle
7:00 AM 48.2 °F - 41.0 °F 76% 30.17 in 10.0 mi Calm Calm - N/A   Mostly Cloudy
7:55 AM 47.5 °F - 41.2 °F 79% 30.17 in 10.0 mi Calm Calm - 0.00 in   Mostly Cloudy
8:55 AM 49.3 °F - 41.0 °F 73% 30.17 in 10.0 mi South 3.5 mph - N/A   Mostly Cloudy
9:55 AM 50.2 °F - 39.6 °F 67% 30.16 in 10.0 mi South 3.5 mph - N/A   Overcast
10:55 AM 50.4 °F - 39.4 °F 66% 30.14 in 10.0 mi SSW 3.5 mph - N/A   Overcast
11:55 AM 50.9 °F - 39.9 °F 66% 30.13 in 10.0 mi WNW 5.8 mph - N/A   Overcast
12:19 PM 50.0 °F - 41.0 °F 71% 30.12 in 10.0 mi NW 4.6 mph - N/A Rain Light Rain
12:40 PM 50.0 °F - 42.8 °F 76% 30.11 in 10.0 mi WNW 4.6 mph - N/A   Scattered Clouds
12:55 PM 50.5 °F - 41.0 °F 70% 30.10 in 10.0 mi NW 4.6 mph - 0.00 in   Mostly Cloudy
1:55 PM 50.5 °F - 41.0 °F 70% 30.10 in 10.0 mi WNW 9.2 mph - N/A   Overcast
2:55 PM 50.2 °F - 42.3 °F 74% 30.12 in 10.0 mi NW 10.4 mph 18.4 mph N/A   Overcast
3:14 PM 50.0 °F - 42.8 °F 76% 30.13 in 10.0 mi NW 8.1 mph - N/A Rain Light Rain
3:28 PM 48.2 °F - 42.8 °F 82% 30.14 in 10.0 mi NW 6.9 mph - N/A   Overcast
3:36 PM 48.2 °F - 42.8 °F 82% 30.15 in 10.0 mi Variable 6.9 mph - N/A   Light Drizzle
3:55 PM 47.1 °F - 42.8 °F 85% 30.15 in 6.0 mi NNW 9.2 mph - 0.01 in Rain Rain
4:30 PM 46.4 °F 42.9 °F 42.8 °F 87% 30.16 in 8.0 mi NNW 6.9 mph - N/A Rain Light Rain
4:54 PM 46.4 °F 41.9 °F 42.8 °F 87% 30.17 in 6.0 mi NNW 9.2 mph - N/A Rain Rain
4:55 PM 45.5 °F 41.3 °F 43.0 °F 91% 30.17 in 6.0 mi NNW 8.1 mph - 0.05 in Rain Rain
5:00 PM 44.6 °F 40.2 °F 42.8 °F 93% 30.17 in 8.0 mi NNW 8.1 mph - N/A Rain Light Rain
5:01 PM 44.6 °F 40.2 °F 42.8 °F 93% 30.17 in 8.0 mi NNW 8.1 mph - N/A Rain Light Rain
5:55 PM 44.2 °F 38.8 °F 41.9 °F 91% 30.17 in 10.0 mi North 10.4 mph - 0.04 in Rain Light Rain
6:12 PM 44.6 °F 40.7 °F 41.0 °F 87% 30.17 in 8.0 mi North 6.9 mph - N/A Rain Light Rain
6:13 PM 44.6 °F 41.4 °F 42.8 °F 93% 30.17 in 8.0 mi North 5.8 mph - N/A Rain Rain
6:15 PM 44.6 °F 40.7 °F 42.8 °F 93% 30.17 in 7.0 mi North 6.9 mph - N/A Rain Rain
6:40 PM 44.6 °F 40.7 °F 41.0 °F 87% 30.18 in 10.0 mi Variable 6.9 mph - N/A   Overcast
6:45 PM 44.6 °F 40.2 °F 41.0 °F 87% 30.18 in 10.0 mi NNW 8.1 mph - N/A   Light Drizzle
6:55 PM 43.7 °F 38.1 °F 41.2 °F 91% 30.19 in 10.0 mi NNW 10.4 mph - 0.04 in   Light Drizzle
6:57 PM 42.8 °F 38.0 °F 41.0 °F 93% 30.19 in 10.0 mi North 8.1 mph - N/A   Overcast
7:25 PM 42.8 °F 37.5 °F 41.0 °F 93% 30.19 in 10.0 mi North 9.2 mph - N/A   Overcast
7:41 PM 42.8 °F 38.0 °F 41.0 °F 93% 30.19 in 10.0 mi North 8.1 mph - N/A   Overcast
7:55 PM 42.6 °F 37.8 °F 39.9 °F 90% 30.20 in 10.0 mi North 8.1 mph - 0.00 in   Overcast
8:36 PM 42.8 °F 38.0 °F 39.2 °F 87% 30.21 in 10.0 mi North 8.1 mph - N/A   Overcast
8:55 PM 42.4 °F 37.5 °F 39.0 °F 88% 30.22 in 10.0 mi North 8.1 mph - N/A   Overcast
9:55 PM 41.9 °F 35.4 °F 37.4 °F 84% 30.23 in 10.0 mi North 11.5 mph - N/A   Overcast
10:32 PM 41.0 °F 34.7 °F 37.4 °F 87% 30.22 in 10.0 mi North 10.4 mph - N/A   Overcast
10:55 PM 41.7 °F 35.6 °F 36.5 °F 82% 30.23 in 10.0 mi NNE 10.4 mph - N/A   Overcast
11:55 PM 41.5 °F 38.6 °F 36.3 °F 82% 30.23 in 10.0 mi Variable 4.6 mph - N/A   Overcast